Find STARLINK-37432

NORAD ID: 70561 Constellation: starlink operational
LEOCIRCULARRETROGRADE

Live-Position

3D-Globus wird geladen...

Über STARLINK-37432

Beschreibung wird geladen...

Nächste Überflüge

Passes for default location (London). Set your location on the main map for personalized predictions.

Höhenverlauf

Loading altitude history...

Zweizeiliger Elementsatz

1 70561C 26097B 26121.92548611 -.00738390 00000+0 -10997-2 0 1217
2 70561 97.2860 316.5905 0007107 258.5124 248.3162 16.05170069 16
Epoch: 1. Mai 2026 • Age: 31 hours